Дата Пункты Температура Давл., мм. Влажн., % Ветер Погодные явления
Воздуха Воды Направл. Скорость
06.01.19 11:00 Одесса -3.0 4.0 757 89 Пн 4 23 ГОДИНИ
06.01.19 05:00 Одесса 1.0 4.0 754 91 С 6 17 ГОДИН
06.01.19 11:00 Одесса -1.0 4.0 753 73 Пн-З 2 11 ГОДИН
06.01.19 08:00 Одесса -5.0 4.0 753 87 Пн-З 2 08 ГОДИН
06.01.19 05:00 Одесса -5.0 4.0 753 84 З 1 05 ГОДИН
06.01.19 02:00 Одесса -5.0 4.0 754 80 З 2 02 ГОДИНИ
05.01.19 11:00 Одесса -2.0 4.0 755 71 З 2 23 ГОДИНИ
05.01.19 08:00 Одесса -3.0 4.0 756 76 З 2 20 ГОДИН
05.01.19 05:00 Одесса -2.0 4.0 757 69 Пд-З 1 17 ГОДИН
05.01.19 02:00 Одесса 1.0 4.0 758 61 З 1 14 ГОДИН
05.01.19 11:00 Одесса -1.0 4.0 760 67 З 2 11 ГОДИН
05.01.19 08:00 Одесса -4.0 4.0 761 89 З 1 08 ГОДИН
05.01.19 05:00 Одесса -3.0 4.0 762 90 З 3 05 ГОДИН
05.01.19 02:00 Одесса -2.0 4.0 763 90 З 2 02 ГОДИНИ
04.01.19 11:00 Одесса -2.0 4.0 763 89 З 1 23 ГОДИНИ
04.01.19 08:00 Одесса -2.0 4.0 763 85 З 2 20 ГОДИН
04.01.19 05:00 Одесса -2.0 4.0 762 74 Пн-З 2 17 ГОДИН
04.01.19 11:00 Одесса -2.0 4.0 759 72 Пн 5 11 ГОДИН
04.01.19 08:00 Одесса -3.0 4.0 759 82 Пн 4 08 ГОДИН
04.01.19 05:00 Одесса -3.0 4.0 759 82 Пн 3 05 ГОДИН
Количество строк
1 2 3 4 5 6 7 8 9 10
Page 5 of 448